Austin, TX

3:11 AM CDT on April 21, 2018 (GMT -0500)
Austin

Weather History for KATT - February, 2014

Change the Weather History Date:

Saturday, February 15, 2014

  Actual Average Record
Temperature  
Mean Temperature 59 °F 55 °F  
Max Temperature 76 °F 65 °F 85 °F (1980)
Min Temperature 42 °F 45 °F 20 °F (1909)
Degree Days  
Heating Degree Days 6 11  
Month to date heating degree days 256 177  
Since 1 July heating degree days 1439 1217  
Cooling Degree Days 0 1  
Month to date cooling degree days 3 10  
Year to date cooling degree days 6 19  
Growing Degree Days 9 (Base 50)    
Moisture  
Dew Point 35 °F    
Average Humidity 43    
Maximum Humidity 64    
Minimum Humidity 22    
Precipitation  
Precipitation 0.00 in 0.08 in 0.82 in (1983)
Month to date precipitation 0.27 1.06  
Year to date precipitation 0.72 3.28  
Snow  
Snow 0.00 in - - ()
Month to date snowfall 0.0  
Since 1 July snowfall 0.2  
Snow Depth 0.00 in    
Sea Level Pressure  
Sea Level Pressure 30.09 in    
Wind  
Wind Speed 5 mph (SSE)    
Max Wind Speed 15 mph    
Max Gust Speed 23 mph    
Visibility 10 miles    
Events      
T = Trace of Precipitation, MM = Missing Value Source: NWS Daily Summary

Daily Weather History Graph

Daily Weather History Graph

Search for Another Location

Airport or City:

Astronomy

Feb. 15, 2014 Rise Set
Actual Time 7:11 AM CST 6:19 PM CST
Civil Twilight 6:46 AM CST 6:44 PM CST
Nautical Twilight 6:18 AM CST 7:12 PM CST
Astronomical Twilight 5:50 AM CST 7:40 PM CST
Moon 7:13 PM CST (2/15) 7:16 AM CST (2/15)
Length of Visible Light 11h 57m
Length of Day
11h 08m
Waxing Gibbous, 99% of the Moon is Illuminated
Feb 15
Waxing Gibbous
Feb 22
Last Quarter
Mar 1
New
Mar 8
First Quarter
Mar 16
Full

Hourly Weather History & Observations

Time (CST) Temp. Dew Point Humidity Pressure Visibility Wind Dir Wind Speed Gust Speed Precip Events Conditions
12:51 AM 57.0 °F 21.9 °F 26% 30.08 in 10.0 mi NNE 3.5 mph - N/A   Clear
1:51 AM 55.9 °F 23.0 °F 28% 30.10 in 10.0 mi North 4.6 mph - N/A   Clear
2:51 AM 50.0 °F 28.0 °F 43% 30.11 in 10.0 mi Calm Calm - N/A   Clear
3:51 AM 48.0 °F 26.1 °F 42% 30.10 in 10.0 mi NNE 3.5 mph - N/A   Clear
4:51 AM 44.1 °F 30.0 °F 58% 30.11 in 10.0 mi Calm Calm - N/A   Clear
5:51 AM 44.1 °F 28.9 °F 55% 30.12 in 10.0 mi Calm Calm - N/A   Clear
6:51 AM 43.0 °F 28.9 °F 58% 30.14 in 10.0 mi Calm Calm - N/A   Clear
7:51 AM 43.0 °F 30.9 °F 62% 30.16 in 10.0 mi Calm Calm - N/A   Clear
8:51 AM 55.9 °F 30.0 °F 37% 30.15 in 10.0 mi ESE 3.5 mph - N/A   Clear
9:51 AM 61.0 °F 28.9 °F 30% 30.17 in 10.0 mi Variable 6.9 mph - N/A   Clear
10:51 AM 63.0 °F 30.0 °F 29% 30.16 in 10.0 mi SE 11.5 mph - N/A   Clear
11:51 AM 68.0 °F 30.9 °F 25% 30.14 in 10.0 mi South 6.9 mph - N/A   Clear
12:51 PM 70.0 °F 30.9 °F 24% 30.10 in 10.0 mi South 8.1 mph 17.3 mph N/A   Clear
1:51 PM 73.0 °F 33.1 °F 23% 30.07 in 10.0 mi South 8.1 mph - N/A   Clear
2:51 PM 75.0 °F 35.1 °F 23% 30.04 in 10.0 mi Variable 5.8 mph 20.7 mph N/A   Clear
3:51 PM 75.0 °F 35.1 °F 23% 30.02 in 10.0 mi South 9.2 mph 19.6 mph N/A   Clear
4:51 PM 75.0 °F 36.0 °F 24% 30.01 in 10.0 mi South 6.9 mph - N/A   Clear
5:51 PM 72.0 °F 37.0 °F 28% 30.01 in 10.0 mi Variable 6.9 mph - N/A   Clear
6:51 PM 68.0 °F 36.0 °F 31% 30.02 in 10.0 mi SSE 5.8 mph - N/A   Clear
7:51 PM 66.0 °F 42.1 °F 42% 30.04 in 10.0 mi SSE 5.8 mph - N/A   Clear
8:51 PM 63.0 °F 44.1 °F 50% 30.06 in 10.0 mi SE 3.5 mph - N/A   Clear
9:51 PM 61.0 °F 48.0 °F 62% 30.07 in 10.0 mi SSE 6.9 mph - N/A   Clear
10:51 PM 60.1 °F 48.9 °F 67% 30.07 in 10.0 mi South 5.8 mph - N/A   Partly Cloudy
11:05 PM 60.1 °F 51.1 °F 72% 30.07 in 10.0 mi South 4.6 mph - N/A   Mostly Cloudy
11:18 PM 61.0 °F 51.1 °F 70% 30.07 in 10.0 mi South 5.8 mph - N/A   Overcast
11:51 PM 61.0 °F 52.0 °F 72% 30.05 in 10.0 mi Variable 6.9 mph - N/A   Overcast